TIME,DELAY(SENSOR),PRES,OXYGEN,RAWTEMP,T(OPTODE),TCPHASE,FLUOR,BETA(BETA700),BETA(BETA412),BETA(BETA440),CDOM,C(CSC),ED(ED412.20),ED(ED444.00),ED(ED489.60),ED(ED554.30),LU(LU412.10),LU(LU443.90),LU(LU489.70),LU(LU554.70),COMP,TILTX,TILTY,CHECK
1334720768,5808,894.6199951171875000,36.4187889099121100,557.6469726562500000,4.5587978363037110,56.0352706909179700,55,101,101,79,83,15449,0,0,0,0,2147122779,2147782537,2147574774,2147573485,2941,2,13,1888
1334724364,5808,979.3800048828125000,42.1314506530761700,568.4138793945312000,4.2248401641845700,55.2855186462402340,54,99,101,78,83,15449,0,0,0,0,2147123739,2147773476,2147575588,2147574418,3191,2,13,35252
1334727964,5814,990.4199829101562000,43.0282707214355500,569.9077758789062000,4.1784272193908690,55.1701889038085940,55,100,102,79,83,15450,0,0,0,0,2147127003,2147781138,2147570011,2147572242,3371,2,13,11579
1334731564,5809,988.2800292968750000,43.4851493835449200,572.0250854492188000,4.1126141548156740,55.1258316040039060,55,102,102,79,84,15450,0,0,0,0,2147126838,2147781284,2147573376,2147572397,258,2,13,42451
1334735164,5809,1000.6400146484375000,43.5011215209960940,572.2670288085938000,4.1050930023193360,55.1277694702148440,55,98,100,77,83,15449,0,0,0,0,2147124882,2147781458,2147573467,2147573458,146,2,13,1486
1334738764,5810,1003.9000244140625000,42.8655891418457000,572.0642700195312000,4.1113929748535160,55.2205581665039060,55,98,101,80,83,15443,0,0,0,0,2147126244,2147777673,2147571968,2147571968,17,2,13,25107
1334742364,5808,1003.6799926757812000,42.5556716918945300,572.0645751953125000,4.1113848686218260,55.2628898620605500,56,107,102,78,84,15446,0,0,0,0,2147127140,2147776832,2147575168,2147572315,227,2,13,47295
1334745964,5808,1009.7899780273438000,42.3939704895019500,571.8911743164062000,4.1167759895324710,55.2813606262207000,55,98,101,78,84,15448,0,0,0,0,2147127680,2147780214,2147575963,2147574491,175,2,13,12098
1334749564,5810,1013.7700195312500000,41.7694816589355500,571.6859741210938000,4.1231541633605960,55.3748397827148440,54,111,100,78,83,15447,0,0,0,0,2147124900,2147779245,2147576265,2147572397,3544,2,13,51745
1334753164,5810,1020.2299804687500000,42.0986099243164060,570.5828857421875000,4.1574440002441410,55.3121910095214840,54,100,103,79,84,15443,0,0,0,0,2147125668,2147778166,2147570432,2147572534,435,2,13,1971
1334756764,5810,1025.8100585937500000,41.7117309570312500,569.6948852539062000,4.1850409507751465,55.3561592102050800,56,99,102,77,84,15443,0,0,0,0,2147122916,2147777197,2147578212,2147575369,271,2,13,13251
1334760364,5809,1023.5599975585938000,41.3006210327148440,569.3333129882812000,4.1962800025939940,55.4166793823242200,55,100,101,79,84,15443,0,0,0,0,2147126500,2147780397,2147575798,2147575222,787,2,13,8420
1334763964,5810,1025.4000244140625000,40.9349899291992200,569.4016113281250000,4.1941552162170410,55.4674606323242200,55,100,102,78,84,15441,0,0,0,0,2147123748,2147779565,2147576338,2147572013,319,2,13,44523
1334767564,5808,1023.2000122070312000,40.6473007202148440,569.8668823242188000,4.1796951293945310,55.5150489807128900,55,99,102,78,84,15439,0,0,0,0,2147121764,2147781924,2147575670,2147575908,436,2,13,16616
1334771164,5809,1024.5200195312500000,41.7000999450683600,570.7890014648438000,4.1510391235351560,55.3705482482910160,56,103,101,78,84,15439,0,0,0,0,2147125494,2147778093,2147573193,2147574354,212,2,13,58254
1334774764,5808,1021.6900024414062000,41.7075386047363300,570.8386230468750000,4.1494998931884770,55.3707008361816400,54,113,102,78,84,15440,0,0,0,0,2147124297,2147771364,2147578550,2147572800,3093,2,13,3051
1334778364,5809,1015.5399780273438000,41.7189216613769500,571.4108886718750000,4.1317062377929690,55.3736495971679700,55,99,102,79,84,15438,0,0,0,0,2147122934,2147777389,2147575734,2147572004,120,2,13,33159
1334781964,5810,1012.5000000000000000,41.5964698791503900,571.9207763671875000,4.1158537864685060,55.3976516723632800,55,101,102,77,84,15438,0,0,0,0,2147126217,2147777773,2147578669,2147573513,125,2,13,60591
1334785564,5807,1017.4099731445312000,41.7636795043945300,572.0767822265625000,4.1110038757324220,55.3778800964355500,55,99,102,84,84,15440,0,0,0,0,2147124434,2147774226,2147577033,2147574016,260,2,13,59345
1334789164,5808,1018.6699829101562000,41.9891815185546900,572.2094116210938000,4.1068820953369140,55.3483009338378900,55,99,102,78,83,15438,0,0,0,0,2147126482,2147780379,2147576530,2147574198,245,2,13,11520
1334792764,5809,1021.9799804687500000,42.3536796569824200,572.0535278320312000,4.1117291450500490,55.2932281494140600,55,100,102,79,84,15438,0,0,0,0,2147127872,2147777636,2147572918,2147569984,92,2,13,50904
1334796364,5808,1021.2899780273438000,42.4155693054199200,571.9036254882812000,4.1163921356201170,55.2828483581543000,55,100,102,78,85,15434,0,0,0,0,2147126043,2147778870,2147574034,2147576548,116,2,13,18705
1334799964,5809,1015.1099853515625000,42.6203804016113300,572.8220214843750000,4.0878310203552250,55.2624206542968750,56,330,101,79,84,15419,0,0,0,0,2147124507,2147775707,2147574180,2147571785,3053,2,13,63033
1334803564,5810,1015.1599731445312000,42.8584899902343750,573.7803955078125000,4.0580220222473145,55.2367286682128900,54,100,102,78,85,15436,0,0,0,0,2147128173,2147775204,2147572425,2147571986,805,2,13,42753
1334807164,5806,1021.4799804687500000,43.3792114257812500,573.2141113281250000,4.0756378173828125,55.1561393737793000,55,100,100,78,85,15429,0,0,0,0,2147125412,2147777270,2147571428,2147568658,187,2,13,45896
1334810764,5812,1023.8200073242188000,43.1622200012207000,572.7457885742188000,4.0902018547058105,55.1785011291503900,54,99,101,79,83,15430,0,0,0,0,2147124406,2147779474,2147574107,2147573010,9,2,13,65341
1334814364,5812,1021.1300048828125000,42.9920310974121100,572.5526733398438000,4.0962090492248535,55.2016105651855500,54,100,101,79,85,15427,0,0,0,0,2147125961,2147776539,2147574857,2147569490,3538,2,13,18762
1334817964,5810,1023.1799926757812000,43.3661499023437500,572.5623779296875000,4.0959048271179200,55.1484298706054700,55,100,102,78,83,15427,0,0,0,0,2147126582,2147778505,2147572644,2147570203,3159,2,13,14275
1334821564,5812,1016.0100097656250000,42.7340507507324200,573.6444091796875000,4.0622520446777340,55.2562599182128900,55,98,102,79,83,15429,0,0,0,0,2147127040,2147776201,2147574445,2147572864,83,2,13,34407
1334825164,5811,1011.5399780273438000,42.0252113342285160,573.7089843750000000,4.0602421760559080,55.3537902832031250,54,99,102,78,84,15426,0,0,0,0,2147127899,2147776521,2147576246,2147573878,145,2,13,54374
1334828764,5810,1018.9500122070312000,41.5641784667968750,573.8198242187500000,4.0567989349365230,55.4219589233398440,55,98,102,79,84,15427,0,0,0,0,2147127113,2147778998,2147574857,2147570953,17,2,13,5595
1334832364,5808,1020.7700195312500000,42.9322013854980500,573.4517211914062000,4.0682468414306640,55.2232398986816400,55,101,101,79,84,15422,0,0,0,0,2147125193,2147776530,2147578322,2147573138,1799,2,13,63818
1334835964,5813,1016.9299926757812000,42.8140487670898440,573.5407714843750000,4.0654740333557130,55.2401084899902340,56,100,102,77,84,15427,0,0,0,0,2147122934,2147773220,2147575076,2147571209,76,2,13,2373
1334839564,5808,1023.6900024414062000,42.3123703002929700,573.3833007812500000,4.0703749656677250,55.3130989074707000,55,99,101,79,83,15425,0,0,0,0,2147123172,2147781577,2147575076,2147575195,290,2,13,1182
1334843164,5809,1023.5300292968750000,41.9071311950683600,573.3151245117188000,4.0724949836730960,55.3705787658691400,55,99,103,78,84,15426,0,0,0,0,2147126482,2147777270,2147576320,2147571008,140,2,13,28986
1334846764,5809,1023.5000000000000000,42.4289588928222660,572.4337158203125000,4.0999088287353520,55.2861900329589840,55,100,101,77,84,15426,0,0,0,0,2147125449,2147775122,2147576960,2147571739,3304,2,13,21287
1334850364,5810,1022.2600097656250000,42.9295806884765600,572.3046875000000000,4.1039180755615230,55.2121009826660160,54,102,102,79,83,15420,0,0,0,0,2147126774,2147774326,2147571017,2147573348,9,2,13,38618
1334853964,5809,1023.2500000000000000,43.1088714599609400,572.8421020507812000,4.0872077941894530,55.1873207092285160,55,101,102,77,82,15420,0,0,0,0,2147124937,2147779355,2147577097,2147573156,432,2,13,13012
1334857564,5811,1027.6600341796875000,42.8317985534668000,572.3115844726562000,4.1037039756774900,55.2199401855468750,56,98,103,79,82,15406,0,0,0,0,2147125604,2147777005,2147577234,2147574436,89,2,13,50459
1334861164,5811,1030.0200195312500000,42.3021507263183600,572.2736206054688000,4.1048851013183590,55.2984390258789060,55,99,100,79,83,15416,0,0,0,0,2147124882,2147781997,2147578486,2147574573,35,2,13,58966
1334864764,5810,1027.7800292968750000,42.4905090332031250,572.1754760742188000,4.1079368591308590,55.2704696655273440,55,101,103,77,83,15418,0,0,0,0,2147124553,2147778166,2147573897,2147573760,186,2,13,2083
1334865055,5812,1028.1899414062500000,42.3521804809570300,572.1090087890625000,4.1100029945373535,55.2889900207519500,55,99,103,78,83,15417,0,0,0,0,2147126720,2147778678,2147574939,2147572141,27,2,13,9075
